AirNav   Everest Fuels
 
 563 users online  

WI56 C Jeidy Farms Airport
Bloomington, Wisconsin, USA

GOING TO BLOOMINGTON?


FAA INFORMATION EFFECTIVE 26 JANUARY 2023

Location

FAA Identifier: WI56
Lat/Long: 42-52-53.9600N 090-51-38.4560W
42-52.899333N 090-51.640933W
42.8816556,-90.8606822
(estimated)
Elevation: 1010 ft. / 308 m (estimated)
Variation: 01E (1985)
From city: 3 miles E of BLOOMINGTON, WI
Time zone: UTC -6 (UTC -5 during Daylight Saving Time)
Zip code: 53804

Airport Operations

Airport use: Private use. Permission required prior to landing
Activation date: 02/1975
Control tower: no
ARTCC: CHICAGO CENTER
FSS: GREEN BAY FLIGHT SERVICE STATION
Attendance: UNATNDD
Wind indicator: yes
Segmented circle: no

Airport Communications

WX AWOS-3 at PDC (14 nm NW): 119.925 (608-326-9122)
WX ASOS at OVS (19 nm NE): 126.775 (608-375-2712)

Nearby radio navigation aids

VOR radial/distance  VOR name  Freq  Var
DBQr343/29.6DUBUQUE VORTAC115.8004E

Airport Services

Airframe service: NONE
Powerplant service: NONE

Runway Information

Runway 18/36

Dimensions: 2000 x 75 ft. / 610 x 23 m
Surface: turf
RUNWAY 18  RUNWAY 36
Traffic pattern: leftleft

Airport Ownership and Management from official FAA records

Ownership: Privately-owned
Owner: CHARLES E. JEIDY
RR 1
BLOOMINGTON, WI 53804
Phone 608-994-2313

Airport Operational Statistics

Aircraft based on the field: 1
Single engine airplanes: 1
    

Additional Remarks

FOR CD CTC CHICAGO ARTCC AT 630-906-8921.

Instrument Procedures

There are no published instrument procedures at WI56.

Some nearby airports with instrument procedures:

KPDC - Prairie du Chien Municipal Airport (14 nm NW)
KOVS - Boscobel Airport (19 nm NE)
KPVB - Platteville Municipal Airport (22 nm SE)
KMRJ - Iowa County Airport (27 nm E)
KDBQ - Dubuque Regional Airport (30 nm S)
 
Loc | Ops | Rwys | IFR | FBO | Links
Com | Nav | Svcs | Stats | Notes
Area around WI56 (C Jeidy Farms Airport)
 
Road maps at: MapQuest Bing Google
 
Aerial photo
No photo
 
Sectional chart

 
Airport distance calculator
Flying to C Jeidy Farms Airport? Find the distance to fly.

From to WI56

Sunrise and sunset
Times for 07-Feb-2023
 Local
(UTC-6)
 Zulu
(UTC)
Morning civil twilight06:4312:43
Sunrise07:1213:12
Sunset17:2323:23
Evening civil twilight17:5323:53

Current date and time
Zulu (UTC)  07-Feb-2023 06:18:22
Local (UTC-6)  07-Feb-2023 00:18:22
 
METAR
KPDC 
14nm NW 
070555Z AUTO 20008KT 10SM SCT055 SCT070 05/01 A2960 RMK AO2 T00540012 10067 20041 400671110
KOVS 
18nm NE 
070553Z AUTO 22008KT 10SM SCT028 OVC065 07/02 A2959 RMK AO2 SLP026 60001 T00720017 10072 20050 400721128 58014
KPVB 
22nm SE 
070555Z AUTO 17011KT 10SM BKN023 OVC033 04/01 A2962 RMK AO1 60001 T00370011 10050 20036 400501086
TAF
KDBQ 
30nm S 
070520Z 0706/0806 23014G23KT P6SM BKN030 WS020/24040KT FM070700 24014G23KT P6SM BKN015 FM070900 27015G23KT P6SM BKN050 FM071100 28014G22KT P6SM BKN015 FM071900 29013KT P6SM SCT020
NOTAMs
Click for the latest NOTAMs
NOTAMs are issued by the DoD/FAA and will open in a separate window not controlled by AirNav.

 

 
 

Would you like to see your business listed on this page?

 If your business provides an interesting product or service to pilots, flight crews, aircraft, or users of the C Jeidy Farms Airport, you should consider listing it here.  To start the listing process, click on the button below
 
Add a business
 

Other Pages about C Jeidy Farms Airport

Update a link
 
Copyright © AirNav, LLC. All rights reserved. Privacy Policy  Contact